Regional Weather Roundup
Issued by NWS

Home | Current Version | Previous Version | Graphics & Text | Print | Product List | Glossary On
Versions: 1 2 3 4 5 6 7 8 9 10 11 12 13 14 15 16 17 18 19 20 21 22 23 24 25 26 27 28 29 30 31 32 33 34 35 36 37 38 39 40 41 42 43 44 45 46 47 48 49 50
000
ASUS43 KDMX 271706
RWRIA

WEATHER ROUNDUP FOR IOWA
NATIONAL WEATHER SERVICE DES MOINES IA
1200 PM CDT MON MAR 27 2017

NOTE: "FAIR" INDICATES FEW OR NO CLOUDS BELOW 12,000 FEET WITH NO
SIGNIFICANT WEATHER AND/OR OBSTRUCTIONS TO VISIBILITY.

* - THESE STATIONS ARE NOT NWS STATIONS...THUS NOT UNDER NWS
QUALITY CONTROL.  THEY ALSO DO NOT REPORT WEATHER SUCH
AS PRECIPITATION OR FOG.

IAZ001>003-012>014-020>022-031>034-043>046-271800-
   NORTHWEST IOWA

CITY           SKY/WX    TMP DP  RH WIND       PRES   REMARKS
CARROLL *      CLOUDY    46  41  81 N10       29.97S
CHEROKEE *     CLOUDY    48  39  72 NE7       29.98S
DENISON *      CLOUDY    46  39  76 N10       29.98F
LE MARS *      CLOUDY    50  39  66 N7        29.99S
ORANGE CITY *  PTSUNNY   48  39  71 N5        29.98S
SHELDON *      CLOUDY    46 N/A N/A NE7       29.97S
SIOUX CITY     CLOUDY    50  40  68 CALM      29.98S
SPENCER        CLOUDY    47  39  74 N8        29.98S
$$

IAZ055>058-069>071-079>083-090>094-271800-
   SOUTHWEST IOWA

CITY           SKY/WX    TMP DP  RH WIND       PRES   REMARKS
ATLANTIC *     CLOUDY    46  41  81 N13       29.97S
AUDUBON *      CLOUDY    46  41  81 N9G16     29.98S
CLARINDA *     CLOUDY    48  43  81 N12       29.99F
COUNCIL BLFS * CLOUDY    46  45  93 N8        29.98R
CRESTON *      CLOUDY    45  41  87 N8        29.98S
HARLAN  *      CLOUDY    45  45 100 NE10      30.00F
LAMONI         CLOUDY    46  44  93 N9        29.95R
RED OAK *      CLOUDY    46  41  81 NE12      29.98S
SHENANDOAH *   CLOUDY    50  43  76 N8G15     29.98S
$$

IAZ047>049-059>061-072>074-084-271800-
   CENTRAL IOWA

CITY           SKY/WX    TMP DP  RH WIND       PRES   REMARKS
AMES           CLOUDY    47  43  86 N9        29.96R
ANKENY *       CLOUDY    46  43  87 CALM      29.98R
BOONE *        CLOUDY    45  43  93 N10       29.95S
CHARITON *     CLOUDY    46  45  93 N7        29.95R FOG
DES MOINES     CLOUDY    48  41  76 N6        29.97R
GRINNELL*      CLOUDY    45  42  90 N5        29.96S
MARSHALLTOWN   CLOUDY    44  42  93 N9        29.96R
NEWTON *       CLOUDY    46  43  87 NE7       29.94F
PELLA *        CLOUDY    47  44  87 N6        29.96R
$$

IAZ004>006-015-016-023>025-035-036-271800-
   NORTH CENTRAL IOWA

CITY           SKY/WX    TMP DP  RH WIND       PRES   REMARKS
ALGONA *       CLOUDY    46  41  81 N10       29.97S
CLARION *      CLOUDY    45  43  93 N7        29.96S
ESTHERVILLE    CLOUDY    45  38  76 N7        29.97S
FORT DODGE *   CLOUDY    45  37  76 N7        29.98R
MASON CITY     CLOUDY    43  38  82 N5        29.97R
FOREST CITY *  CLOUDY    45  39  81 N6        29.96S
WEBSTER CITY * CLOUDY    45  39  81 N8        29.95S
$$

IAZ007>011-017>019-026>030-037>042-050>054-066-271800-
   NORTHEAST IOWA

CITY           SKY/WX    TMP DP  RH WIND       PRES   REMARKS
CEDAR RAPIDS   CLOUDY    47  44  90 E6        29.93R
CHARLES CITY * CLOUDY    45  45 100 N5        29.96R
CLINTON *      CLOUDY    50  45  83 E7        29.94S
DECORAH *      CLOUDY    45  41  87 CALM      29.94S
DUBUQUE        CLOUDY    47  42  83 NE3       29.93R
MONTICELLO *   CLOUDY    50  43  76 VRB5      29.93S
OELWEIN *      CLOUDY    45  45 100 N7        29.96R
WATERLOO       CLOUDY    45  40  82 N7        29.96R
$$

IAZ064-065-067-068-078-271800-
   EAST CENTRAL IOWA

CITY           SKY/WX    TMP DP  RH WIND       PRES   REMARKS
DAVENPORT      CLOUDY    50  45  83 E6        29.94S
IOWA CITY      CLOUDY    51  44  77 E3        29.94F
MUSCATINE *    CLOUDY    50  46  87 E6        29.93F HAZE
QUAD CITIES    CLOUDY    51  45  79 E6        29.92F
$$

IAZ062-063-075>077-085>089-095>099-271800-
   SOUTHEAST IOWA

CITY           SKY/WX    TMP DP  RH WIND       PRES   REMARKS
BURLINGTON     LGT RAIN  50  49  96 E5        29.92F
FAIRFIELD *    CLOUDY    50  45  81 E9        29.92S
FORT MADISON * LGT RAIN  52  50  93 E5        29.93F
KEOKUK *       LGT RAIN  50  48  93 E6        29.92S
OSKALOOSA *    CLOUDY    48  44  85 NE6       29.93S
CENTERVILLE *    N/A     46  46 100 NE7       29.94
OTTUMWA        CLOUDY    50  46  86 NE6       29.93R
WASHINGTON *   CLOUDY    50  48  93 E6        29.94S FOG
$$

ABBREVIATIONS USED IN REMARKS
   TC - TEMPERATURES IN CELSIUS
  WCI - WIND CHILL INDEX
   HX - HEAT INDEX
  VSB - VISIBILITY
$$





USA.gov is the U.S. government's official web portal to all federal, state and local government web resources and services.